This is the latest recevied weather packets stored in our database for station/object ZS1DFR-1. If no packets are shown the sender has not sent any weather packets the latest 10 day(s).
| Time | Temp. | Humidity | Pressure | Rain* | Wind** | Luminosity | Snow |
|---|---|---|---|---|---|---|---|
| 1777388002 | 18.33° C | 60% | 1023.7 hPa | 0 mm | - | - | - |
| 1777387101 | 18.33° C | 60% | 1023.7 hPa | 0 mm | - | - | - |
| 1777386201 | 18.33° C | 53% | 1023.6 hPa | 0 mm | - | - | - |
| 1777385301 | 18.33° C | 53% | 1023.6 hPa | 0 mm | - | - | - |
| 1777384401 | 18.89° C | 56% | 1023.4 hPa | 0 mm | - | - | - |
| 1777383501 | 18.89° C | 56% | 1023.4 hPa | 0 mm | - | - | - |
| 1777382601 | 18.89° C | 56% | 1023.6 hPa | 0 mm | - | - | - |
| 1777381701 | 18.89° C | 56% | 1023.6 hPa | 0 mm | - | - | - |
| 1777380801 | 18.89° C | 56% | 1023.7 hPa | 0 mm | - | - | - |
| 1777379901 | 18.89° C | 56% | 1023.7 hPa | 0 mm | - | - | - |
| 1777379001 | 18.33° C | 57% | 1023.8 hPa | 0 mm | - | - | - |
| 1777378101 | 18.33° C | 57% | 1023.8 hPa | 0 mm | - | - | - |
| 1777377201 | 18.33° C | 57% | 1024.3 hPa | 0 mm | - | - | - |
| 1777376301 | 18.33° C | 57% | 1024.3 hPa | 0 mm | - | - | - |
| 1777375401 | 18.33° C | 56% | 1024.6 hPa | 0 mm | - | - | - |
| 1777374501 | 18.33° C | 56% | 1024.6 hPa | 0 mm | - | - | - |
| 1777373601 | 17.78° C | 58% | 1024.9 hPa | 0 mm | - | - | - |
| 1777372701 | 17.78° C | 58% | 1024.9 hPa | 0 mm | - | - | - |
| 1777371801 | 18.33° C | 62% | 1025.3 hPa | 0 mm | - | - | - |
| 1777370901 | 18.33° C | 62% | 1025.3 hPa | 0 mm | - | - | - |
| 1777370001 | 17.22° C | 67% | 1025.5 hPa | 0 mm | - | - | - |
| 1777369101 | 17.22° C | 67% | 1025.5 hPa | 0 mm | - | - | - |
| 1777368201 | 16.67° C | 72% | 1025.6 hPa | 0 mm | - | - | - |
| 1777367301 | 16.67° C | 72% | 1025.6 hPa | 0 mm | - | - | - |
| 1777366401 | 16.11° C | 78% | 1025.7 hPa | 0 mm | - | - | - |
* Rain latest hour (hover to see other rain measurements)
** Current wind speed in m/s (hover to see current wind gust speed)